Flight Track Log - Related Links

Times and Time Zones

All times are in EDT time to prevent confusion due to time zone crossing. See the UAL4663 flight status page for this flight to view local times or setup timezone preferences in your user account.

Time Position Orientation Groundspeed Altitude Reporting Facility
EDT Latitude Longitude Course Direction KTS MPH feet Rate Location/Type
18:48 35.9242 -78.7597 27° Northeast 174 200 2,600  Level Washington Center
18:49 35.9897 -78.7317 19° North 228 262 4,900 1,988 Climbing Washington Center
18:51 36.0864 -78.7047 13° North 262 302 7,900 2,078 Climbing Washington Center
18:52 36.1644 -78.6742 18° North 262 302 10,200 1,700 Climbing Washington Center
18:53 36.2381 -78.6514 14° North 280 322 11,300 1,250 Climbing Washington Center
18:54 36.3369 -78.6217 14° North 312 359 12,700 1,200 Climbing Washington Center
18:55 36.4231 -78.5914 16° North 332 382 13,700 1,200 Climbing Washington Center
18:56 36.5219 -78.5592 15° North 347 399 15,100 1,400 Climbing Washington Center
18:57 36.6231 -78.5189 18° North 364 419 16,500 1,450 Climbing Washington Center
18:58 36.7328 -78.4764 17° North 370 426 18,000 1,250 Climbing Washington Center
18:59 36.8239 -78.4097 30° Northeast 370 426 19,000 1,300 Climbing Washington Center
19:00 36.9133 -78.3378 33° Northeast 370 426 20,600 1,350 Climbing Washington Center
19:01 37.0047 -78.2603 34° Northeast 388 447 21,700 1,050 Climbing Washington Center
19:02 37.0917 -78.1931 32° Northeast 404 465 22,700 1,150 Climbing Washington Center
19:03 37.1978 -78.1053 33° Northeast 409 471 24,000 1,160 Climbing Washington Center
19:04 37.2856 -78.0064 42° Northeast 409 471 25,000 500 Climbing Washington Center
19:05 37.3133 -77.8636 76° East 393 452 25,000  Level Washington Center
19:06 37.3636 -77.7344 64° Northeast 398 458 25,000  Level Washington Center
19:07 37.4650 -77.6719 26° Northeast 385 443 25,000  Level Washington Center
19:08 37.5728 -77.7011 348° North 349 402 25,000  Level Washington Center
19:09 37.6875 -77.7042 359° North 374 430 25,000  Level Washington Center
19:10 37.7911 -77.6153 34° Northeast 408 470 25,000  Level Washington Center
19:11 37.8908 -77.5231 36° Northeast 425 489 25,000  Level Washington Center
19:12 37.9903 -77.4283 37° Northeast 435 501 25,000  Level Washington Center
19:13 38.0897 -77.3383 35° Northeast 441 507 25,000  Level Washington Center
19:14 38.1806 -77.2506 37° Northeast 441 507 25,000  Level Washington Center
19:15 38.2964 -77.1581 32° Northeast 446 513 25,000  Level Washington Center
19:16 38.3972 -77.1150 19° North 427 491 25,000  Level Washington Center
19:17 38.5103 -77.0617 20° North 427 491 25,000  Level Washington Center
19:18 38.6256 -77.0081 20° North 433 498 25,000  Level Washington Center
19:19 38.7389 -76.9464 23° Northeast 433 498 25,000  Level Washington Center
19:20 38.8236 -76.8228 49° Northeast 433 498 25,000  Level Washington Center
19:21 38.9064 -76.6853 52° Northeast 451 519 25,000  Level Washington Center
19:22 38.9908 -76.5478 52° Northeast 476 548 25,000  Level Washington Center
19:23 39.0731 -76.4097 52° Northeast 489 563 25,000  Level Washington Center
19:24 39.1575 -76.2689 52° Northeast 489 563 25,000 -50 Level Washington Center
19:25 39.2372 -76.1464 50° Northeast 468 539 24,900  Descending Washington Center
19:26 39.3106 -76.0450 47° Northeast 428 493 25,000 50 Climbing Washington Center
19:27 39.3922 -75.9486 42° Northeast 394 453 25,000  Level Washington Center
19:28 39.4736 -75.8550 42° Northeast 384 442 25,000 -100 Level Washington Center
19:29 39.5572 -75.7558 42° Northeast 389 448 24,800 -1,050 Descending Washington Center
19:30 39.6428 -75.6561 42° Northeast 394 453 22,900 -2,050 Descending Washington Center
19:31 39.7239 -75.5592 43° Northeast 394 453 20,700 -2,300 Descending Washington Center
19:32 39.8011 -75.4644 43° Northeast 394 453 18,300 -2,200 Descending Washington Center
19:33 39.8800 -75.3672 43° Northeast 378 435 16,300 -2,550 Descending Washington Center
19:34 39.9506 -75.2831 42° Northeast 356 410 13,200 -1,850 Descending Washington Center
19:35 40.0131 -75.2069 43° Northeast 333 383 12,600 -1,000 Descending Washington Center
19:36 40.0753 -75.1306 43° Northeast 309 356 11,200 -800 Descending Washington Center
19:37 40.1331 -75.0542 45° Northeast 297 342 11,000 -475 Descending Washington Center
19:37 40.1667 -75.0000 51° Northeast 285 328 10,400 -1,290 Descending New York TRACON
19:39 40.2333 -74.9333 37° Northeast 280 322 8,700 -1,143 Descending New York TRACON
19:40 40.2833 -74.8667 45° Northeast 264 304 8,000 -550 Descending New York TRACON
19:41 40.3333 -74.8000 45° Northeast 260 299 7,600 -667 Descending New York TRACON
19:43 40.4500 -74.6833 37° Northeast 254 292 6,000 -520 Descending New York TRACON
19:45 40.6342 -74.6030 17° North  Level FlightAware Approximate
19:46 40.4333 -74.5500 17° North 204 235 5,000  Level New York TRACON
19:48 40.5628 -74.3601 48° Northeast  Level Estimated
19:49 40.3167 -74.4000 48° Northeast 185 213 4,100  Level New York TRACON
19:50 40.3333 -74.3667 57° Northeast 173 199 3,400 -550 Descending New York TRACON
19:51 40.3833 -74.3500 14° North 164 189 3,000 -200 Descending New York TRACON
19:52 40.4333 -74.3333 14° North 171 197 3,000  Level New York TRACON
19:53 40.4667 -74.3167 21° North 154 177 3,000  Level New York TRACON
19:54 40.5000 -74.2833 37° Northeast 156 180 3,000 -233 Level New York TRACON
19:56 40.5833 -74.2333 24° Northeast 154 177 2,300 -500 Descending New York TRACON
19:57 40.6167 -74.2167 21° North 137 158 1,500 -800 Descending New York TRACON
19:59 40.6833 -74.1667 22° Northeast  Level FlightAware Approximate
20:06 40.6925 -74.1687 22° Northeast  Level Estimated

Login

Don't have an account? Register now (free) for customized features, flight alerts, and more!